EW3127 Weather Reports


Display with metric or nautical units.
time (UTC)temp
F
wind
direction
speed
MPH
gust
MPH
rain 1hr
in
rain 24hr
in
rain mn
in
humidity
%
barometer
mb
20191216103029 30 34 32.0 37.0 0.00 0.02 0.00 89 1017.1
20191216100029 30 11 32.0 37.0 0.00 0.02 0.00 90 1017.0
20191216092959 29 19 31.0 37.0 0.00 0.02 0.00 91 1016.4
20191216090029 28 26 33.0 37.0 0.00 0.03 0.00 92 1016.0
20191216083029 28 29 33.0 36.0 0.00 0.03 0.00 93 1015.8
20191216080029 28 11 28.0 37.0 0.00 0.04 0.00 93 1016.3
20191216073029 27 13 34.0 39.0 0.00 0.05 0.04 94 1015.3
20191216070029 28 14 30.0 39.0 0.00 0.05 0.04 93 1016.0
20191216063029 28 16 33.0 38.0 0.00 0.06 0.04 93 1015.5
20191216060029 27 13 33.0 36.0 0.00 0.06 0.04 93 1014.7
20191216053028 27 17 32.0 33.0 0.00 0.06 0.04 93 1015.3
20191216050029 27 28 27.0 33.0 0.00 0.06 0.04 93 1015.8
20191216043029 27 28 25.0 33.0 0.00 0.06 0.04 93 1014.5
20191216040029 27 26 31.0 32.0 0.00 0.07 0.04 93 1014.5
20191216033028 28 30 20.0 27.0 0.00 0.07 0.04 92 1014.9
20191216030028 30 26 18.0 28.0 0.00 0.07 0.04 91 1015.1
20191216023028 31 23 16.0 24.0 0.00 0.07 0.04 89 1014.5
20191216020028 31 15 18.0 20.0 0.00 0.08 0.04 87 1014.7
20191216013029 32 16 16.0 18.0 0.00 0.09 0.04 80 1014.5
20191216010029 31 357 11.0 18.0 0.00 0.10 0.04 66 1014.3
20191216003028 33 7 2.0 22.0 0.00 0.12 0.04 66 1014.8
20191216000028 34 28 3.0 22.0 0.00 0.13 0.04 66 1013.7
20191215233028 34 2 9.0 23.0 0.00 0.14 0.04 66 1013.5
20191215230028 34 2 16.0 24.0 0.00 0.15 0.04 66 1013.2
20191215223028 34 7 12.0 25.0 0.00 0.16 0.04 66 1013.3
20191215220028 34 352 12.0 25.0 0.00 0.17 0.04 66 1013.2
20191215213028 34 315 1.0 27.0 0.00 0.18 0.04 66 1013.1
20191215210028 34 357 6.0 29.0 0.00 0.19 0.04 67 1012.9
20191215203028 33 348 17.0 33.0 0.00 0.20 0.04 67 1013.1
20191215200029 33 7 18.0 30.0 0.00 0.21 0.04 68 1013.1
20191215192959 32 353 13.0 32.0 0.00 0.21 0.04 68 1013.5
20191215190028 32 328 21.0 31.0 0.00 0.21 0.04 68 1013.4
20191215183028 32 353 20.0 34.0 0.00 0.21 0.04 69 1012.9
20191215180029 33 343 12.0 29.0 0.01 0.21 0.04 75 1013.8
20191215173028 33 15 2.0 32.0 0.01 0.21 0.04 83 1013.0
20191215170028 32 7 18.0 34.0 0.00 0.20 0.03 88 1011.1
20191215162958 32 352 15.0 29.0 0.00 0.20 0.03 88 1011.9
20191215160028 32 352 17.0 29.0 0.00 0.20 0.03 88 1011.1
20191215153028 32 11 0.0 20.0 0.00 0.20 0.03 87 1011.9
20191215150028 31 7 13.0 26.0 0.00 0.20 0.03 87 1011.3
20191215143028 32 2 7.0 23.0 0.00 0.20 0.03 69 1010.5
20191215140029 32 24 2.0 12.0 0.00 0.20 0.03 70 1010.5
20191215133028 34 206 0.0 1.0 0.00 0.20 0.03 69 1010.6
20191215130028 34 254 0.0 12.0 0.00 0.20 0.03 70 1010.0
20191215122958 35 217 0.0 9.0 0.00 0.20 0.03 70 1009.9
20191215120028 36 198 0.0 6.0 0.00 0.20 0.03 69 1009.8
20191215112958 36 226 1.0 3.0 0.01 0.20 0.03 70 1009.6
20191215110028 36 217 1.0 4.0 0.01 0.20 0.03 70 1009.8